Weather History for Great Falls, MT

Change the Weather History Date:

Wednesday, July 3, 2013

  Actual Average Record
Temperature  
Mean Temperature 82 °F 65 °F  
Max Temperature 98 °F 80 °F 98 °F (1985)
Min Temperature 65 °F 49 °F 41 °F (1971)
Degree Days  
Heating Degree Days 0 3  
Month to date heating degree days 0 9  
Since 1 June heating degree days 165 200  
Since 1 July heating degree days 0 9  
Cooling Degree Days 17 2  
Month to date cooling degree days 39 6  
Year to date cooling degree days 69 45  
Since 1 June cooling degree days 66 38  
Growing Degree Days 32 (Base 50)    
Moisture  
Dew Point 53 °F    
Average Humidity 45    
Maximum Humidity 73    
Minimum Humidity 16    
Precipitation  
Precipitation 0.00 in 0.06 in 1.30 in (1902)
Month to date precipitation 0.00 0.18  
Year to date precipitation 7.44 8.44  
Snow  
Snow 0.00 in 0.00 in T in (1966)
Month to date snowfall 0.0 0.0  
Since 1 June snowfall 0.0 0.3  
Since 1 July snowfall 0.0 0.0  
Snow Depth 0.00 in    
Sea Level Pressure  
Sea Level Pressure 29.81 in    
Wind  
Wind Speed 9 mph (West)    
Max Wind Speed 23 mph    
Max Gust Speed 32 mph    
Visibility 10 miles    
Events      
T = Trace of Precipitation, MM = Missing Value Source: NWS Daily Summary

Daily Weather History Graph

Daily Weather History Graph

Search for Another Location

Airport:

Trip Planner

Search our weather history database for the weather conditions in past years. The results will help you decide how hot, cold, wet, or windy it might be!

Date:

Astronomy

Jul. 03, 2013 Rise Set
Actual Time 5:33 AM MDT 9:25 PM MDT
Civil Twilight 4:53 AM MDT 10:05 PM MDT
Nautical Twilight 3:59 AM MDT 10:59 PM MDT
Astronomical Twilight 2:36 AM MDT 12:21 AM MDT
Moon 2:23 AM MDT (7/3) 5:32 PM MDT (7/3)
Length of Visible Light 17h 11m
Length of Day
15h 51m
Waning Crescent, 18% of the Moon is Illuminated
Jul 3
Waning Crescent
Jul 8
New
Jul 15
First Quarter
Jul 22
Full
Jul 29
Last Quarter

Hourly Weather History & Observations

Time (MDT) Temp. Heat Index Dew Point Humidity Pressure Visibility Wind Dir Wind Speed Gust Speed Precip Events Conditions
12:53 AM 73.9 °F - 53.1 °F 48% 29.80 in 10.0 mi SSW 10.4 mph - N/A   Clear
1:53 AM 71.1 °F - 54.0 °F 55% 29.80 in 10.0 mi SW 9.2 mph - N/A   Clear
2:53 AM 73.0 °F - 54.0 °F 51% 29.80 in 10.0 mi SW 10.4 mph - N/A   Clear
3:53 AM 70.0 °F - 53.1 °F 55% 29.79 in 10.0 mi SW 11.5 mph - N/A   Clear
4:53 AM 70.0 °F - 53.1 °F 55% 29.80 in 10.0 mi SW 9.2 mph - N/A   Clear
5:53 AM 68.0 °F - 53.1 °F 59% 29.82 in 10.0 mi SW 6.9 mph - N/A   Clear
6:53 AM 66.9 °F - 55.9 °F 68% 29.85 in 10.0 mi SW 4.6 mph - N/A   Clear
7:53 AM 75.9 °F - 55.9 °F 50% 29.86 in 10.0 mi WSW 5.8 mph - N/A   Clear
8:53 AM 81.0 °F 80.7 °F 55.0 °F 41% 29.86 in 10.0 mi WSW 8.1 mph - N/A   Clear
9:53 AM 87.1 °F - 51.1 °F 29% 29.86 in 10.0 mi WSW 9.2 mph - N/A   Clear
10:53 AM 90.0 °F - 46.9 °F 23% 29.85 in 10.0 mi West 6.9 mph - N/A   Clear
11:53 AM 91.0 °F - 48.0 °F 23% 29.83 in 10.0 mi West 8.1 mph - N/A   Clear
12:53 PM 95.0 °F - 46.0 °F 19% 29.81 in 10.0 mi West 12.7 mph 19.6 mph N/A   Clear
1:53 PM 96.1 °F - 43.0 °F 16% 29.79 in 10.0 mi West 11.5 mph 23.0 mph N/A   Clear
2:53 PM 96.1 °F - 45.0 °F 17% 29.77 in 10.0 mi West 9.2 mph - N/A   Partly Cloudy
3:53 PM 97.0 °F - 42.1 °F 15% 29.76 in 10.0 mi West 8.1 mph - N/A   Clear
4:53 PM 93.0 °F - 46.0 °F 20% 29.76 in 10.0 mi West 10.4 mph 20.7 mph N/A   Partly Cloudy
5:53 PM 93.0 °F 91.1 °F 55.0 °F 28% 29.76 in 10.0 mi North 10.4 mph 24.2 mph N/A   Clear
6:53 PM 89.1 °F 88.0 °F 57.9 °F 35% 29.77 in 10.0 mi North 13.8 mph - N/A   Clear
7:53 PM 86.0 °F 84.7 °F 55.9 °F 36% 29.78 in 10.0 mi NNE 12.7 mph - N/A   Clear
8:53 PM 82.0 °F 82.7 °F 61.0 °F 49% 29.78 in 10.0 mi ENE 11.5 mph - N/A   Clear
9:53 PM 79.0 °F - 61.0 °F 54% 29.80 in 10.0 mi ENE 10.4 mph - N/A   Clear
10:53 PM 75.0 °F - 62.1 °F 64% 29.81 in 10.0 mi ENE 6.9 mph - N/A   Clear
11:53 PM 69.1 °F - 60.1 °F 73% 29.82 in 10.0 mi NNE 4.6 mph - N/A   Partly Cloudy